Simultaneous Nadir Overpasses (SNOs) Predictions

Prediction of SNOs between METOP-C and LANDSAT-8 Satellite Orbit:

Table of predicted SNOs for the next 14.0 days since TLE Epoch: 11/11/2023
Index Date (METOP-C) Time (METOP-C) Lat,Lon (METOP-C) SZA (METOP-C ) Date (LANDSAT-8) Time (LANDSAT-8) Lat,Lon (LANDSAT-8) SZA (LANDSAT-8 ) Distance(km) Time Diff (sec)
1 11/13/2023 10:23:40 81.11, 63.55 101.36 11/13/2023 10:24:39 81.10, 63.46 101.37 1.74 59
2 11/13/2023 11:14:21 -81.12,-128.77 78.59 11/13/2023 11:14:05 -81.12,-128.59 78.57 3.19 16
3 11/16/2023 05:58:04 81.11, 129.82 102.06 11/16/2023 05:58:55 81.11, 129.96 102.10 2.51 51
4 11/16/2023 06:48:44 -81.13, -62.13 77.84 11/16/2023 06:48:21 -81.13, -62.07 77.85 1.14 23
5 11/19/2023 01:32:27 81.12,-163.26 102.79 11/19/2023 01:33:11 81.12,-163.41 102.79 2.53 44
6 11/19/2023 02:23:08 -81.14, 4.40 77.16 11/19/2023 02:22:37 -81.14, 4.58 77.15 3.20 31
7 11/21/2023 21:06:52 81.11, -97.20 103.37 11/21/2023 21:07:27 81.12, -97.01 103.40 3.16 35
8 11/21/2023 21:57:32 -81.14, 70.84 76.54 11/21/2023 21:56:53 -81.14, 71.00 76.54 2.86 39
9 11/24/2023 16:41:15 81.12, -30.47 103.97 11/24/2023 16:41:42 81.12, -30.49 103.98 0.31 27



Historial Predications of SNOs between METOP-C and LANDSAT-8
